Weather History for KMQY - May, 2014

Change the Weather History Date:

Friday, May 16, 2014

  Actual Average Record
Temperature  
Mean Temperature 54 °F -  
Max Temperature 63 °F 75 °F 90 °F (2012)
Min Temperature 46 °F 59 °F 44 °F (1997)
Degree Days  
Heating Degree Days 10    
Growing Degree Days 4 (Base 50)    
Moisture  
Dew Point 44 °F    
Average Humidity 72    
Maximum Humidity 100    
Minimum Humidity 35    
Precipitation  
Precipitation 0.20 in - - ()
Sea Level Pressure  
Sea Level Pressure 30.12 in    
Wind  
Wind Speed 5 mph (WNW)    
Max Wind Speed 18 mph    
Max Gust Speed 26 mph    
Visibility 10 miles    
Events Rain    
Averages and records for this station are not official NWS values.
T = Trace of Precipitation, MM = Missing Value Source: NWS Daily Summary

Daily Weather History Graph

Daily Weather History Graph

Search for Another Location

Airport or City:

Trip Planner

Search our weather history database for the weather conditions in past years. The results will help you decide how hot, cold, wet, or windy it might be!

Date:

Astronomy

May. 16, 2014 Rise Set
Actual Time 5:39 AM CDT 7:45 PM CDT
Civil Twilight 5:10 AM CDT 8:14 PM CDT
Nautical Twilight 4:36 AM CDT 8:49 PM CDT
Astronomical Twilight 3:58 AM CDT 9:27 PM CDT
Moon 9:52 PM CDT (5/16) 7:20 AM CDT (5/16)
Length of Visible Light 15h 03m
Length of Day
14h 06m
Waning Gibbous, 95% of the Moon is Illuminated
May 16
Waning Gibbous
May 21
Last Quarter
May 28
New
Jun 5
First Quarter
Jun 12
Full

Hourly Weather History & Observations

Time (CDT) Temp. Dew Point Humidity Pressure Visibility Wind Dir Wind Speed Gust Speed Precip Events Conditions
12:56 AM 50.0 °F 46.9 °F 89% 30.12 in 10.0 mi SSE 4.6 mph - N/A   Overcast
1:56 AM 47.8 °F 45.0 °F 90% 30.10 in 10.0 mi Calm Calm - N/A   Partly Cloudy
2:56 AM 46.9 °F 45.9 °F 96% 30.10 in 10.0 mi Calm Calm - N/A   Mostly Cloudy
3:56 AM 48.9 °F 46.9 °F 93% 30.09 in 9.0 mi Calm Calm - 0.01 in Rain Light Rain
4:56 AM 48.9 °F 46.9 °F 93% 30.09 in 10.0 mi Calm Calm - 0.05 in Rain Light Rain
5:56 AM 48.9 °F 46.9 °F 93% 30.10 in 6.0 mi NW 4.6 mph - 0.10 in Rain Light Rain
6:56 AM 48.9 °F 48.9 °F 100% 30.11 in 10.0 mi SSW 5.8 mph - 0.03 in   Mostly Cloudy
7:13 AM 48.2 °F 48.2 °F 100% 30.08 in 10.0 mi WSW 4.6 mph - N/A   Mostly Cloudy
7:56 AM 50.0 °F 48.9 °F 96% 30.13 in 10.0 mi SW 6.9 mph - N/A   Mostly Cloudy
8:56 AM 52.9 °F 48.9 °F 86% 30.13 in 10.0 mi West 10.4 mph - N/A   Mostly Cloudy
9:13 AM 53.6 °F 48.2 °F 82% 30.10 in 10.0 mi NW 12.7 mph - N/A   Mostly Cloudy
9:56 AM 56.8 °F 45.0 °F 64% 30.14 in 10.0 mi West 16.1 mph 20.7 mph N/A   Scattered Clouds
10:56 AM 59.9 °F 37.9 °F 44% 30.14 in 10.0 mi NNW 18.4 mph 26.5 mph N/A   Scattered Clouds
11:56 AM 61.0 °F 36.0 °F 39% 30.13 in 10.0 mi NW 16.1 mph 23.0 mph N/A   Scattered Clouds
12:56 PM 63.0 °F 36.0 °F 37% 30.12 in 10.0 mi NW 15.0 mph 23.0 mph N/A   Scattered Clouds
1:56 PM 63.0 °F 34.9 °F 35% 30.12 in 10.0 mi WNW 12.7 mph - N/A   Scattered Clouds
3:56 PM 61.0 °F 38.8 °F 44% 30.12 in 10.0 mi WNW 9.2 mph - 0.00 in   Partly Cloudy
4:24 PM 57.2 °F 41.0 °F 55% 30.09 in 5.0 mi WNW 8.1 mph 24.2 mph 0.00 in Rain Light Rain
4:56 PM 59.9 °F 39.9 °F 48% 30.13 in 10.0 mi West 9.2 mph - 0.00 in Rain Light Rain
5:56 PM 61.0 °F 38.8 °F 44% 30.12 in 10.0 mi NW 3.5 mph - 0.01 in   Mostly Cloudy
6:56 PM 57.9 °F 39.9 °F 51% 30.13 in 10.0 mi NW 4.6 mph - N/A   Clear
7:56 PM 55.9 °F 41.9 °F 59% 30.14 in 10.0 mi Calm Calm - N/A   Scattered Clouds
8:56 PM 52.9 °F 46.9 °F 80% 30.15 in 10.0 mi Calm Calm - N/A   Scattered Clouds
9:56 PM 52.0 °F 45.0 °F 77% 30.16 in 10.0 mi Calm Calm - N/A   Partly Cloudy
10:56 PM 50.0 °F 45.9 °F 86% 30.16 in 10.0 mi Calm Calm - N/A   Clear
11:56 PM 47.8 °F 45.9 °F 93% 30.16 in 10.0 mi Calm Calm - N/A   Clear